Погода в Жданях

Россия / Псковская область     58°24′03″N   28°57′17″E
темп.,
°C
ветер,
м/с
пор.,
м/с
влажн.,
%
обл.,
%
осадки,
мм/ч
давл.,
гПа
погр.,
м
16 мая, вс
вс1600:00+11зсз2799100 0.3 1004164
03:00+11зсз2799100 1.5 1005239
06:00+11зсз379782 0.4 1006256
09:00+14зсз348669 0.4 1008404
12:00+16з346959 0.0 1009674
15:00+19з235692 0.4 10091642
18:00+19зсз126357 0.2 1010441
21:00+14всв11745 0.2 101011
17 мая, пн
пн1700:00+11юв25949 0.0 101191
03:00+11юв279733 0.0 1011146
06:00+11юв39954 0.0 1011223
09:00+17юв4966100 0.0 1011648
12:00+20юв5856100 0.0 10101305
15:00+20юв5963100 0.1 10091387
18:00+18ююв51075100 0.7 1008844
21:00+14ююз3993100 1.9 1008368
18 мая, вт
вт1800:00+12св1198100 3.8 100726
03:00+13ссв149997 3.8 1006176
06:00+12ссв279999 0.0 1004252
09:00+15св3897100 0.0 1002493
12:00+18в5109599 1.3 1000523
15:00+21юв51182100 3.0 9991160
18:00+19ююв51287100 2.1 9981062
21:00+17юв4109265 4.1 998463
19 мая, ср
ср1900:00+14ю259998 0.3 997176
03:00+12з2498100 1.8 997253
06:00+11зюз259796 3.4 997325
09:00+11зюз2496100 5.3 998320
12:00+14з2382100 0.0 999656
15:00+12зсз2695100 2.3 999407
18:00+12сз279174 2.3 999411
21:00+11юз2396100 2.5 100087
20 мая, чт
чт2000:00+10з2895100 0.6 999482
03:00+9зюз3896100 0.8 1000417
06:00+8зюз4996100 0.3 1001425
09:00+10юз51291100 0.8 1002954
12:00+15зюз61155100 0.1 10031904
15:00+16зюз71049100 0.2 10042297
18:00+13зюз510695 0.4 10061281
21:00+10юз49855 1.0 1007403